Year,Month,Day,Hour,Minute,Value (Times are PST for temperature in C)
2021,04,16,00,00,11.70
2021,04,16,00,01,11.80
2021,04,16,00,02,11.80
2021,04,16,00,03,11.80
2021,04,16,00,04,11.80
2021,04,16,00,05,11.70
2021,04,16,00,06,11.70
2021,04,16,00,07,11.60
2021,04,16,00,08,11.50
2021,04,16,00,09,11.60
2021,04,16,00,10,11.50
2021,04,16,00,11,11.50
2021,04,16,00,12,11.40
2021,04,16,00,13,11.40
2021,04,16,00,14,11.40
2021,04,16,00,15,11.40
2021,04,16,00,16,11.30
2021,04,16,00,17,11.30
2021,04,16,00,18,11.30
2021,04,16,00,19,11.20
2021,04,16,00,20,11.20
2021,04,16,00,21,11.20
2021,04,16,00,22,11.20
2021,04,16,00,23,11.30
2021,04,16,00,24,11.30
2021,04,16,00,25,11.30
2021,04,16,00,26,11.30
2021,04,16,00,27,11.30
2021,04,16,00,28,11.30
2021,04,16,00,29,11.30
2021,04,16,00,30,11.30
2021,04,16,00,31,11.20
2021,04,16,00,32,11.20
2021,04,16,00,33,11.10
2021,04,16,00,34,11.10
2021,04,16,00,35,11.10
2021,04,16,00,36,11.00
2021,04,16,00,37,11.00
2021,04,16,00,38,11.00
2021,04,16,00,39,10.90
2021,04,16,00,40,10.90
2021,04,16,00,41,10.80
2021,04,16,00,42,10.80
2021,04,16,00,43,10.70
2021,04,16,00,44,10.70
2021,04,16,00,45,10.70
2021,04,16,00,46,10.60
2021,04,16,00,47,10.60
2021,04,16,00,48,10.70
2021,04,16,00,49,10.70
2021,04,16,00,50,10.70
2021,04,16,00,51,10.70
2021,04,16,00,52,10.70
2021,04,16,00,53,10.70
2021,04,16,00,54,10.70
2021,04,16,00,55,10.70
2021,04,16,00,56,10.80
2021,04,16,00,57,10.90
2021,04,16,00,58,10.90
2021,04,16,00,59,10.90
2021,04,16,01,00,10.90
2021,04,16,01,01,10.90
2021,04,16,01,02,10.90
2021,04,16,01,03,10.90
2021,04,16,01,04,10.90
2021,04,16,01,05,10.90
2021,04,16,01,06,10.90
2021,04,16,01,07,10.90
2021,04,16,01,08,10.90
2021,04,16,01,09,11.00
2021,04,16,01,10,11.00
2021,04,16,01,11,11.10
2021,04,16,01,12,11.10
2021,04,16,01,13,11.10
2021,04,16,01,14,11.10
2021,04,16,01,15,11.10
2021,04,16,01,16,11.00
2021,04,16,01,17,11.00
2021,04,16,01,18,11.00
2021,04,16,01,19,10.90
2021,04,16,01,20,10.90
2021,04,16,01,21,10.90
2021,04,16,01,22,11.00
2021,04,16,01,23,11.00
2021,04,16,01,24,11.10
2021,04,16,01,25,11.10
2021,04,16,01,26,11.20
2021,04,16,01,27,11.40
2021,04,16,01,28,11.50
2021,04,16,01,29,11.60
2021,04,16,01,30,11.70
2021,04,16,01,31,11.70
2021,04,16,01,32,11.80
2021,04,16,01,33,11.80
2021,04,16,01,34,11.90
2021,04,16,01,35,11.90
2021,04,16,01,36,11.90
2021,04,16,01,37,11.90
2021,04,16,01,38,11.90
2021,04,16,01,39,11.80
2021,04,16,01,40,11.90
2021,04,16,01,41,11.80
2021,04,16,01,42,11.80
2021,04,16,01,43,11.80
2021,04,16,01,44,11.80
2021,04,16,01,45,11.80
2021,04,16,01,46,11.80
2021,04,16,01,47,11.80
2021,04,16,01,48,11.80
2021,04,16,01,49,11.70
2021,04,16,01,50,11.70
2021,04,16,01,51,11.70
2021,04,16,01,52,11.70
2021,04,16,01,53,11.60
2021,04,16,01,54,11.70
2021,04,16,01,55,11.70
2021,04,16,01,56,11.70
2021,04,16,01,57,11.70
2021,04,16,01,58,11.80
2021,04,16,01,59,11.80
2021,04,16,02,00,11.80
2021,04,16,02,01,11.80
2021,04,16,02,02,11.90
2021,04,16,02,03,11.90
2021,04,16,02,04,11.90
2021,04,16,02,05,12.00
2021,04,16,02,06,12.00
2021,04,16,02,07,12.00
2021,04,16,02,08,12.10
2021,04,16,02,09,12.10
2021,04,16,02,10,12.10
2021,04,16,02,11,12.10
2021,04,16,02,12,12.10
2021,04,16,02,13,12.10
2021,04,16,02,14,12.10
2021,04,16,02,15,12.10
2021,04,16,02,16,12.10
2021,04,16,02,17,12.10
2021,04,16,02,18,12.10
2021,04,16,02,19,12.00
2021,04,16,02,20,12.00
2021,04,16,02,21,11.90
2021,04,16,02,22,11.90
2021,04,16,02,23,11.80
2021,04,16,02,24,11.70
2021,04,16,02,25,11.50
2021,04,16,02,26,11.40
2021,04,16,02,27,11.30
2021,04,16,02,28,11.20
2021,04,16,02,29,11.10
2021,04,16,02,30,10.90
2021,04,16,02,31,10.80
2021,04,16,02,32,10.60
2021,04,16,02,33,10.50
2021,04,16,02,34,10.40
2021,04,16,02,35,10.30
2021,04,16,02,36,10.30
2021,04,16,02,37,10.20
2021,04,16,02,38,10.20
2021,04,16,02,39,10.10
2021,04,16,02,40,10.10
2021,04,16,02,41,10.00
2021,04,16,02,42,10.00
2021,04,16,02,43,9.90
2021,04,16,02,44,9.90
2021,04,16,02,45,9.80
2021,04,16,02,46,9.80
2021,04,16,02,47,9.80
2021,04,16,02,48,9.80
2021,04,16,02,49,9.80
2021,04,16,02,50,9.70
2021,04,16,02,51,9.70
2021,04,16,02,52,9.70
2021,04,16,02,53,9.80
2021,04,16,02,54,9.80
2021,04,16,02,55,9.80
2021,04,16,02,56,9.80
2021,04,16,02,57,9.90
2021,04,16,02,58,9.90
2021,04,16,02,59,9.90
2021,04,16,03,00,9.90
2021,04,16,03,01,10.00
2021,04,16,03,02,9.90
2021,04,16,03,03,9.90
2021,04,16,03,04,9.90
2021,04,16,03,05,9.90
2021,04,16,03,06,9.80
2021,04,16,03,07,9.80
2021,04,16,03,08,9.80
2021,04,16,03,09,9.80
2021,04,16,03,10,9.80
2021,04,16,03,11,9.80
2021,04,16,03,12,9.70
2021,04,16,03,13,9.70
2021,04,16,03,14,9.70
2021,04,16,03,15,9.60
2021,04,16,03,16,9.60
2021,04,16,03,17,9.50
2021,04,16,03,18,9.50
2021,04,16,03,19,9.50
2021,04,16,03,20,9.40
2021,04,16,03,21,9.40
2021,04,16,03,22,9.50
2021,04,16,03,23,9.50
2021,04,16,03,24,9.50
2021,04,16,03,25,9.50
2021,04,16,03,26,9.50
2021,04,16,03,27,9.60
2021,04,16,03,28,9.60
2021,04,16,03,29,9.50
2021,04,16,03,30,9.50
2021,04,16,03,31,9.50
2021,04,16,03,32,9.40
2021,04,16,03,33,9.30
2021,04,16,03,34,9.30
2021,04,16,03,35,9.20
2021,04,16,03,36,9.20
2021,04,16,03,37,9.10
2021,04,16,03,38,9.10
2021,04,16,03,39,9.10
2021,04,16,03,40,9.10
2021,04,16,03,41,9.10
2021,04,16,03,42,9.10
2021,04,16,03,43,9.10
2021,04,16,03,44,9.10
2021,04,16,03,45,9.10
2021,04,16,03,46,9.10
2021,04,16,03,47,9.10
2021,04,16,03,48,9.00
2021,04,16,03,49,9.00
2021,04,16,03,50,9.00
2021,04,16,03,51,8.90
2021,04,16,03,52,8.90
2021,04,16,03,53,8.90
2021,04,16,03,54,9.00
2021,04,16,03,55,9.10
2021,04,16,03,56,9.10
2021,04,16,03,57,9.10
2021,04,16,03,58,9.20
2021,04,16,03,59,9.20
2021,04,16,04,00,9.20
2021,04,16,04,01,9.20
2021,04,16,04,02,9.20
2021,04,16,04,03,9.10
2021,04,16,04,04,9.20
2021,04,16,04,05,9.10
2021,04,16,04,06,9.10
2021,04,16,04,07,9.10
2021,04,16,04,08,9.10
2021,04,16,04,09,9.10
2021,04,16,04,10,9.00
2021,04,16,04,11,9.00
2021,04,16,04,12,9.00
2021,04,16,04,13,9.00
2021,04,16,04,14,9.00
2021,04,16,04,15,9.00
2021,04,16,04,16,9.00
2021,04,16,04,17,9.10
2021,04,16,04,18,9.00
2021,04,16,04,19,9.00
2021,04,16,04,20,9.00
2021,04,16,04,21,8.90
2021,04,16,04,22,8.90
2021,04,16,04,23,8.80
2021,04,16,04,24,8.80
2021,04,16,04,25,8.80
2021,04,16,04,26,8.80
2021,04,16,04,27,8.70
2021,04,16,04,28,8.70
2021,04,16,04,29,8.70
2021,04,16,04,30,8.70
2021,04,16,04,31,8.70
2021,04,16,04,32,8.70
2021,04,16,04,33,8.70
2021,04,16,04,34,8.70
2021,04,16,04,35,8.70
2021,04,16,04,36,8.70
2021,04,16,04,37,8.70
2021,04,16,04,38,8.60
2021,04,16,04,39,8.60
2021,04,16,04,40,8.60
2021,04,16,04,41,8.60
2021,04,16,04,42,8.60
2021,04,16,04,43,8.60
2021,04,16,04,44,8.50
2021,04,16,04,45,8.50
2021,04,16,04,46,8.50
2021,04,16,04,47,8.60
2021,04,16,04,48,8.60
2021,04,16,04,49,8.60
2021,04,16,04,50,8.60
2021,04,16,04,51,8.60
2021,04,16,04,52,8.60
2021,04,16,04,53,8.60
2021,04,16,04,54,8.60
2021,04,16,04,55,8.60
2021,04,16,04,56,8.70
2021,04,16,04,57,8.70
2021,04,16,04,58,8.70
2021,04,16,04,59,8.70
2021,04,16,05,00,8.70
2021,04,16,05,01,8.60
2021,04,16,05,02,8.60
2021,04,16,05,03,8.60
2021,04,16,05,04,8.60
2021,04,16,05,05,8.60
2021,04,16,05,06,8.60
2021,04,16,05,07,8.60
2021,04,16,05,08,8.60
2021,04,16,05,09,8.60
2021,04,16,05,10,8.60
2021,04,16,05,11,8.60
2021,04,16,05,12,8.60
2021,04,16,05,13,8.60
2021,04,16,05,14,8.60
2021,04,16,05,15,8.60
2021,04,16,05,16,8.50
2021,04,16,05,17,8.50
2021,04,16,05,18,8.40
2021,04,16,05,19,8.40
2021,04,16,05,20,8.50
2021,04,16,05,21,8.50
2021,04,16,05,22,8.50
2021,04,16,05,23,8.50
2021,04,16,05,24,8.50
2021,04,16,05,25,8.50
2021,04,16,05,26,8.50
2021,04,16,05,27,8.50
2021,04,16,05,28,8.50
2021,04,16,05,29,8.50
2021,04,16,05,30,8.50
2021,04,16,05,31,8.50
2021,04,16,05,32,8.50
2021,04,16,05,33,8.50
2021,04,16,05,34,8.50
2021,04,16,05,35,8.50
2021,04,16,05,36,8.60
2021,04,16,05,37,8.50
2021,04,16,05,38,8.60
2021,04,16,05,39,8.60
2021,04,16,05,40,8.60
2021,04,16,05,41,8.60
2021,04,16,05,42,8.60
2021,04,16,05,43,8.60
2021,04,16,05,44,8.60
2021,04,16,05,45,8.70
2021,04,16,05,46,8.60
2021,04,16,05,47,8.60
2021,04,16,05,48,8.60
2021,04,16,05,49,8.60
2021,04,16,05,50,8.60
2021,04,16,05,51,8.60
2021,04,16,05,52,8.60
2021,04,16,05,53,8.60
2021,04,16,05,54,8.60
2021,04,16,05,55,8.50
2021,04,16,05,56,8.50
2021,04,16,05,57,8.40
2021,04,16,05,58,8.30
2021,04,16,05,59,8.30
2021,04,16,06,00,8.20
2021,04,16,06,01,8.20
2021,04,16,06,02,8.10
2021,04,16,06,03,8.00
2021,04,16,06,04,8.00
2021,04,16,06,05,8.00
2021,04,16,06,06,8.00
2021,04,16,06,07,8.00
2021,04,16,06,08,8.00
2021,04,16,06,09,8.00
2021,04,16,06,10,8.00
2021,04,16,06,11,7.90
2021,04,16,06,12,7.90
2021,04,16,06,13,7.90
2021,04,16,06,14,7.90
2021,04,16,06,15,7.90
2021,04,16,06,16,7.90
2021,04,16,06,17,7.90
2021,04,16,06,18,7.90
2021,04,16,06,19,7.90
2021,04,16,06,20,7.90
2021,04,16,06,21,7.80
2021,04,16,06,22,7.80
2021,04,16,06,23,7.70
2021,04,16,06,24,7.70
2021,04,16,06,25,7.70
2021,04,16,06,26,7.60
2021,04,16,06,27,7.60
2021,04,16,06,28,7.60
2021,04,16,06,29,7.50
2021,04,16,06,30,7.50
2021,04,16,06,31,7.50
2021,04,16,06,32,7.50
2021,04,16,06,33,7.50
2021,04,16,06,34,7.50
2021,04,16,06,35,7.40
2021,04,16,06,36,7.40
2021,04,16,06,37,7.40
2021,04,16,06,38,7.40
2021,04,16,06,39,7.40
2021,04,16,06,40,7.50
2021,04,16,06,41,7.40
2021,04,16,06,42,7.40
2021,04,16,06,43,7.40
2021,04,16,06,44,7.40
2021,04,16,06,45,7.40
2021,04,16,06,46,7.40
2021,04,16,06,47,7.40
2021,04,16,06,48,7.50
2021,04,16,06,49,7.50
2021,04,16,06,50,7.60
2021,04,16,06,51,7.60
2021,04,16,06,52,7.60
2021,04,16,06,53,7.60
2021,04,16,06,54,7.70
2021,04,16,06,55,7.70
2021,04,16,06,56,7.70
2021,04,16,06,57,7.70
2021,04,16,06,58,7.80
2021,04,16,06,59,7.80
2021,04,16,07,00,7.80
2021,04,16,07,01,7.90
2021,04,16,07,02,7.90
2021,04,16,07,03,8.00
2021,04,16,07,04,8.00
2021,04,16,07,05,8.10
2021,04,16,07,06,8.10
2021,04,16,07,07,8.10
2021,04,16,07,08,8.10
2021,04,16,07,09,8.10
2021,04,16,07,10,8.10
2021,04,16,07,11,8.10
2021,04,16,07,12,8.10
2021,04,16,07,13,8.10
2021,04,16,07,14,8.10
2021,04,16,07,15,8.20
2021,04,16,07,16,8.20
2021,04,16,07,17,8.20
2021,04,16,07,18,8.20
2021,04,16,07,19,8.20
2021,04,16,07,20,8.20
2021,04,16,07,21,8.30
2021,04,16,07,22,8.30
2021,04,16,07,23,8.30
2021,04,16,07,24,8.40
2021,04,16,07,25,8.40
2021,04,16,07,26,8.50
2021,04,16,07,27,8.50
2021,04,16,07,28,8.50
2021,04,16,07,29,8.60
2021,04,16,07,30,8.60
2021,04,16,07,31,8.70
2021,04,16,07,32,8.70
2021,04,16,07,33,8.70
2021,04,16,07,34,8.80
2021,04,16,07,35,8.80
2021,04,16,07,36,8.80
2021,04,16,07,37,8.80
2021,04,16,07,38,8.80
2021,04,16,07,39,8.80
2021,04,16,07,40,8.80
2021,04,16,07,41,8.80
2021,04,16,07,42,8.90
2021,04,16,07,43,8.90
2021,04,16,07,44,8.90
2021,04,16,07,45,8.90
2021,04,16,07,46,8.90
2021,04,16,07,47,9.00
2021,04,16,07,48,9.00
2021,04,16,07,49,9.10
2021,04,16,07,50,9.20
2021,04,16,07,51,9.30
2021,04,16,07,52,9.40
2021,04,16,07,53,9.50
2021,04,16,07,54,9.50
2021,04,16,07,55,9.60
2021,04,16,07,56,9.60
2021,04,16,07,57,9.60
2021,04,16,07,58,9.60
2021,04,16,07,59,9.60
2021,04,16,08,00,9.60
2021,04,16,08,01,9.70
2021,04,16,08,02,9.70
2021,04,16,08,03,9.80
2021,04,16,08,04,9.80
2021,04,16,08,05,9.80
2021,04,16,08,06,9.80
2021,04,16,08,07,9.80
2021,04,16,08,08,9.90
2021,04,16,08,09,9.90
2021,04,16,08,10,9.90
2021,04,16,08,11,9.90
2021,04,16,08,12,9.90
2021,04,16,08,13,9.90
2021,04,16,08,14,9.90
2021,04,16,08,15,10.00
2021,04,16,08,16,10.10
2021,04,16,08,17,10.10
2021,04,16,08,18,10.10
2021,04,16,08,19,10.10
2021,04,16,08,20,10.20
2021,04,16,08,21,10.20
2021,04,16,08,22,10.30
2021,04,16,08,23,10.40
2021,04,16,08,24,10.40
2021,04,16,08,25,10.50
2021,04,16,08,26,10.50
2021,04,16,08,27,10.50
2021,04,16,08,28,10.50
2021,04,16,08,29,10.50
2021,04,16,08,30,10.50
2021,04,16,08,31,10.60
2021,04,16,08,32,10.70
2021,04,16,08,33,10.70
2021,04,16,08,34,10.80
2021,04,16,08,35,10.80
2021,04,16,08,36,10.80
2021,04,16,08,37,10.80
2021,04,16,08,38,10.90
2021,04,16,08,39,10.90
2021,04,16,08,40,11.00
2021,04,16,08,41,11.10
2021,04,16,08,42,11.20
2021,04,16,08,43,11.20
2021,04,16,08,44,11.30
2021,04,16,08,45,11.40
2021,04,16,08,46,11.40
2021,04,16,08,47,11.50
2021,04,16,08,48,11.60
2021,04,16,08,49,11.60
2021,04,16,08,50,11.70
2021,04,16,08,51,11.70
2021,04,16,08,52,11.70
2021,04,16,08,53,11.80
2021,04,16,08,54,11.80
2021,04,16,08,55,11.90
2021,04,16,08,56,12.00
2021,04,16,08,57,12.10
2021,04,16,08,58,12.20
2021,04,16,08,59,12.20
2021,04,16,09,00,12.20
2021,04,16,09,01,12.30
2021,04,16,09,02,12.30
2021,04,16,09,03,12.40
2021,04,16,09,04,12.40
2021,04,16,09,05,12.50
2021,04,16,09,06,12.50
2021,04,16,09,07,12.60
2021,04,16,09,08,12.60
2021,04,16,09,09,12.70
2021,04,16,09,10,12.70
2021,04,16,09,11,12.70
2021,04,16,09,12,12.90
2021,04,16,09,13,13.00
2021,04,16,09,14,13.10
2021,04,16,09,15,13.20
2021,04,16,09,16,13.40
2021,04,16,09,17,13.50
2021,04,16,09,18,13.60
2021,04,16,09,19,13.60
2021,04,16,09,20,13.60
2021,04,16,09,21,13.60
2021,04,16,09,22,13.70
2021,04,16,09,23,13.70
2021,04,16,09,24,13.80
2021,04,16,09,25,13.90
2021,04,16,09,26,14.00
2021,04,16,09,27,14.00
2021,04,16,09,28,14.00
2021,04,16,09,29,14.00
2021,04,16,09,30,14.00
2021,04,16,09,31,14.00
2021,04,16,09,32,14.10
2021,04,16,09,33,14.20
2021,04,16,09,34,14.20
2021,04,16,09,35,14.20
2021,04,16,09,36,14.20
2021,04,16,09,37,14.30
2021,04,16,09,38,14.30
2021,04,16,09,39,14.30
2021,04,16,09,40,14.30
2021,04,16,09,41,14.20
2021,04,16,09,42,14.20
2021,04,16,09,43,14.10
2021,04,16,09,44,14.00
2021,04,16,09,45,14.00
2021,04,16,09,46,13.90
2021,04,16,09,47,13.90
2021,04,16,09,48,13.90
2021,04,16,09,49,13.90
2021,04,16,09,50,14.00
2021,04,16,09,51,14.10
2021,04,16,09,52,14.10
2021,04,16,09,53,14.20
2021,04,16,09,54,14.30
2021,04,16,09,55,14.40
2021,04,16,09,56,14.40
2021,04,16,09,57,14.40
2021,04,16,09,58,14.40
2021,04,16,09,59,14.40
2021,04,16,10,00,14.40
2021,04,16,10,01,14.40
2021,04,16,10,02,14.40
2021,04,16,10,03,14.40
2021,04,16,10,04,14.40
2021,04,16,10,05,14.40
2021,04,16,10,06,14.40
2021,04,16,10,07,14.40
2021,04,16,10,08,14.50
2021,04,16,10,09,14.50
2021,04,16,10,10,14.60
2021,04,16,10,11,14.70
2021,04,16,10,12,14.70
2021,04,16,10,13,14.80
2021,04,16,10,14,14.80
2021,04,16,10,15,14.90
2021,04,16,10,16,14.80
2021,04,16,10,17,14.80
2021,04,16,10,18,14.70
2021,04,16,10,19,14.70
2021,04,16,10,20,14.80
2021,04,16,10,21,14.90
2021,04,16,10,22,14.90
2021,04,16,10,23,14.90
2021,04,16,10,24,15.00
2021,04,16,10,25,15.00
2021,04,16,10,26,15.00
2021,04,16,10,27,15.10
2021,04,16,10,28,15.10
2021,04,16,10,29,15.10
2021,04,16,10,30,15.20
2021,04,16,10,31,15.20
2021,04,16,10,32,15.30
2021,04,16,10,33,15.30
2021,04,16,10,34,15.30
2021,04,16,10,35,15.40
2021,04,16,10,36,15.50
2021,04,16,10,37,15.60
2021,04,16,10,38,15.70
2021,04,16,10,39,15.80
2021,04,16,10,40,15.90
2021,04,16,10,41,15.90
2021,04,16,10,42,15.90
2021,04,16,10,43,15.90
2021,04,16,10,44,15.90
2021,04,16,10,45,15.80
2021,04,16,10,46,15.80
2021,04,16,10,47,15.80
2021,04,16,10,48,15.80
2021,04,16,10,49,15.90
2021,04,16,10,50,15.90
2021,04,16,10,51,16.10
2021,04,16,10,52,16.20
2021,04,16,10,53,16.30
2021,04,16,10,54,16.40
2021,04,16,10,55,16.40
2021,04,16,10,56,16.50
2021,04,16,10,57,16.60
2021,04,16,10,58,16.60
2021,04,16,10,59,16.50
2021,04,16,11,00,16.50
2021,04,16,11,01,16.60
2021,04,16,11,02,16.60
2021,04,16,11,03,16.70
2021,04,16,11,04,16.80
2021,04,16,11,05,16.90
2021,04,16,11,06,17.00
2021,04,16,11,07,17.10
2021,04,16,11,08,17.30
2021,04,16,11,09,17.30
2021,04,16,11,10,17.30
2021,04,16,11,11,17.30
2021,04,16,11,12,17.30
2021,04,16,11,13,17.40
2021,04,16,11,14,17.40
2021,04,16,11,15,17.40
2021,04,16,11,16,17.30
2021,04,16,11,17,17.20
2021,04,16,11,18,17.20
2021,04,16,11,19,17.30
2021,04,16,11,20,17.30
2021,04,16,11,21,17.40
2021,04,16,11,22,17.40
2021,04,16,11,23,17.50
2021,04,16,11,24,17.60
2021,04,16,11,25,17.60
2021,04,16,11,26,17.60
2021,04,16,11,27,17.60
2021,04,16,11,28,17.80
2021,04,16,11,29,18.00
2021,04,16,11,30,18.10
2021,04,16,11,31,18.10
2021,04,16,11,32,18.00
2021,04,16,11,33,17.90
2021,04,16,11,34,17.90
2021,04,16,11,35,17.80
2021,04,16,11,36,17.70
2021,04,16,11,37,17.80
2021,04,16,11,38,17.80
2021,04,16,11,39,17.80
2021,04,16,11,40,17.80
2021,04,16,11,41,17.80
2021,04,16,11,42,17.70
2021,04,16,11,43,17.70
2021,04,16,11,44,17.70
2021,04,16,11,45,17.70
2021,04,16,11,46,17.80
2021,04,16,11,47,17.80
2021,04,16,11,48,17.90
2021,04,16,11,49,17.90
2021,04,16,11,50,18.00
2021,04,16,11,51,18.10
2021,04,16,11,52,18.30
2021,04,16,11,53,18.40
2021,04,16,11,54,18.50
2021,04,16,11,55,18.60
2021,04,16,11,56,18.60
2021,04,16,11,57,18.60
2021,04,16,11,58,18.50
2021,04,16,11,59,18.50
2021,04,16,12,00,18.50
2021,04,16,12,01,18.60
2021,04,16,12,02,18.60
2021,04,16,12,03,18.60
2021,04,16,12,04,18.70
2021,04,16,12,05,18.80
2021,04,16,12,06,18.80
2021,04,16,12,07,18.80
2021,04,16,12,08,18.80
2021,04,16,12,09,18.80
2021,04,16,12,10,18.90
2021,04,16,12,11,18.90
2021,04,16,12,12,18.70
2021,04,16,12,13,18.70
2021,04,16,12,14,18.70
2021,04,16,12,15,18.80
2021,04,16,12,16,18.90
2021,04,16,12,17,18.80
2021,04,16,12,18,18.80
2021,04,16,12,19,18.70
2021,04,16,12,20,18.80
2021,04,16,12,21,18.80
2021,04,16,12,22,18.80
2021,04,16,12,23,18.70
2021,04,16,12,24,18.70
2021,04,16,12,25,18.70
2021,04,16,12,26,18.70
2021,04,16,12,27,18.70
2021,04,16,12,28,18.60
2021,04,16,12,29,18.70
2021,04,16,12,30,18.70
2021,04,16,12,31,18.70
2021,04,16,12,32,18.70
2021,04,16,12,33,18.80
2021,04,16,12,34,18.90
2021,04,16,12,35,19.00
2021,04,16,12,36,19.10
2021,04,16,12,37,19.20
2021,04,16,12,38,19.30
2021,04,16,12,39,19.40
2021,04,16,12,40,19.40
2021,04,16,12,41,19.40
2021,04,16,12,42,19.40
2021,04,16,12,43,19.40
2021,04,16,12,44,19.30
2021,04,16,12,45,19.30
2021,04,16,12,46,19.30
2021,04,16,12,47,19.40
2021,04,16,12,48,19.30
2021,04,16,12,49,19.30
2021,04,16,12,50,19.40
2021,04,16,12,51,19.40
2021,04,16,12,52,19.40
2021,04,16,12,53,19.40
2021,04,16,12,54,19.40
2021,04,16,12,55,19.30
2021,04,16,12,56,19.30
2021,04,16,12,57,19.30
2021,04,16,12,58,19.20
2021,04,16,12,59,19.20
2021,04,16,13,00,19.20
2021,04,16,13,01,19.20
2021,04,16,13,02,19.20
2021,04,16,13,03,19.20
2021,04,16,13,04,19.20
2021,04,16,13,05,19.20
2021,04,16,13,06,19.20
2021,04,16,13,07,19.20
2021,04,16,13,08,19.20
2021,04,16,13,09,19.20
2021,04,16,13,10,19.30
2021,04,16,13,11,19.40
2021,04,16,13,12,19.50
2021,04,16,13,13,19.40
2021,04,16,13,14,19.40
2021,04,16,13,15,19.40
2021,04,16,13,16,19.40
2021,04,16,13,17,19.40
2021,04,16,13,18,19.40
2021,04,16,13,19,19.40
2021,04,16,13,20,19.30
2021,04,16,13,21,19.30
2021,04,16,13,22,19.40
2021,04,16,13,23,19.40
2021,04,16,13,24,19.40
2021,04,16,13,25,19.40
2021,04,16,13,26,19.40
2021,04,16,13,27,19.40
2021,04,16,13,28,19.40
2021,04,16,13,29,19.50
2021,04,16,13,30,19.60
2021,04,16,13,31,19.60
2021,04,16,13,32,19.70
2021,04,16,13,33,19.70
2021,04,16,13,34,19.70
2021,04,16,13,35,19.70
2021,04,16,13,36,19.80
2021,04,16,13,37,19.80
2021,04,16,13,38,19.80
2021,04,16,13,39,19.80
2021,04,16,13,40,19.80
2021,04,16,13,41,19.90
2021,04,16,13,42,19.90
2021,04,16,13,43,20.00
2021,04,16,13,44,20.00
2021,04,16,13,45,19.90
2021,04,16,13,46,20.00
2021,04,16,13,47,20.00
2021,04,16,13,48,20.00
2021,04,16,13,49,20.10
2021,04,16,13,50,20.10
2021,04,16,13,51,20.10
2021,04,16,13,52,20.10
2021,04,16,13,53,20.10
2021,04,16,13,54,20.20
2021,04,16,13,55,20.20
2021,04,16,13,56,20.20
2021,04,16,13,57,20.30
2021,04,16,13,58,20.30
2021,04,16,13,59,20.30
2021,04,16,14,00,20.40
2021,04,16,14,01,20.50
2021,04,16,14,02,20.60
2021,04,16,14,03,20.60
2021,04,16,14,04,20.60
2021,04,16,14,05,20.60
2021,04,16,14,06,20.60
2021,04,16,14,07,20.60
2021,04,16,14,08,20.60
2021,04,16,14,09,20.60
2021,04,16,14,10,20.60
2021,04,16,14,11,20.60
2021,04,16,14,12,20.60
2021,04,16,14,13,20.60
2021,04,16,14,14,20.70
2021,04,16,14,15,20.80
2021,04,16,14,16,20.80
2021,04,16,14,17,20.80
2021,04,16,14,18,20.80
2021,04,16,14,19,20.90
2021,04,16,14,20,20.90
2021,04,16,14,21,20.90
2021,04,16,14,22,20.90
2021,04,16,14,23,20.90
2021,04,16,14,24,21.00
2021,04,16,14,25,21.10
2021,04,16,14,26,21.20
2021,04,16,14,27,21.20
2021,04,16,14,28,21.30
2021,04,16,14,29,21.30
2021,04,16,14,30,21.30
2021,04,16,14,31,21.30
2021,04,16,14,32,21.30
2021,04,16,14,33,21.30
2021,04,16,14,34,21.30
2021,04,16,14,35,21.30
2021,04,16,14,36,21.20
2021,04,16,14,37,21.20
2021,04,16,14,38,21.20
2021,04,16,14,39,21.10
2021,04,16,14,40,21.10
2021,04,16,14,41,21.20
2021,04,16,14,42,21.20
2021,04,16,14,43,21.20
2021,04,16,14,44,21.20
2021,04,16,14,45,21.20
2021,04,16,14,46,21.30
2021,04,16,14,47,21.30
2021,04,16,14,48,21.30
2021,04,16,14,49,21.20
2021,04,16,14,50,21.20
2021,04,16,14,51,21.20
2021,04,16,14,52,21.30
2021,04,16,14,53,21.30
2021,04,16,14,54,21.40
2021,04,16,14,55,21.40
2021,04,16,14,56,21.40
2021,04,16,14,57,21.40
2021,04,16,14,58,21.40
2021,04,16,14,59,21.30
2021,04,16,15,00,21.30
2021,04,16,15,01,21.30
2021,04,16,15,02,21.40
2021,04,16,15,03,21.40
2021,04,16,15,04,21.40
2021,04,16,15,05,21.40
2021,04,16,15,06,21.40
2021,04,16,15,07,21.40
2021,04,16,15,08,21.40
2021,04,16,15,09,21.50
2021,04,16,15,10,21.50
2021,04,16,15,11,21.50
2021,04,16,15,12,21.50
2021,04,16,15,13,21.60
2021,04,16,15,14,21.60
2021,04,16,15,15,21.70
2021,04,16,15,16,21.80
2021,04,16,15,17,21.90
2021,04,16,15,18,21.90
2021,04,16,15,19,22.00
2021,04,16,15,20,22.10
2021,04,16,15,21,22.10
2021,04,16,15,22,22.10
2021,04,16,15,23,22.20
2021,04,16,15,24,22.20
2021,04,16,15,25,22.20
2021,04,16,15,26,22.20
2021,04,16,15,27,22.10
2021,04,16,15,28,22.20
2021,04,16,15,29,22.20
2021,04,16,15,30,22.30
2021,04,16,15,31,22.30
2021,04,16,15,32,22.20
2021,04,16,15,33,22.20
2021,04,16,15,34,22.20
2021,04,16,15,35,22.20
2021,04,16,15,36,22.10
2021,04,16,15,37,22.10
2021,04,16,15,38,22.10
2021,04,16,15,39,22.10
2021,04,16,15,40,22.10
2021,04,16,15,41,22.10
2021,04,16,15,42,22.10
2021,04,16,15,43,22.10
2021,04,16,15,44,22.10
2021,04,16,15,45,22.10
2021,04,16,15,46,22.10
2021,04,16,15,47,22.10
2021,04,16,15,48,22.10
2021,04,16,15,49,22.10
2021,04,16,15,50,22.10
2021,04,16,15,51,22.20
2021,04,16,15,52,22.20
2021,04,16,15,53,22.20
2021,04,16,15,54,22.30
2021,04,16,15,55,22.20
2021,04,16,15,56,22.20
2021,04,16,15,57,22.30
2021,04,16,15,58,22.30
2021,04,16,15,59,22.30
2021,04,16,16,00,22.30
2021,04,16,16,01,22.30
2021,04,16,16,02,22.30
2021,04,16,16,03,22.30
2021,04,16,16,04,22.40
2021,04,16,16,05,22.40
2021,04,16,16,06,22.30
2021,04,16,16,07,22.30
2021,04,16,16,08,22.30
2021,04,16,16,09,22.40
2021,04,16,16,10,22.40
2021,04,16,16,11,22.40
2021,04,16,16,12,22.50
2021,04,16,16,13,22.50
2021,04,16,16,14,22.60
2021,04,16,16,15,22.60
2021,04,16,16,16,22.60
2021,04,16,16,17,22.60
2021,04,16,16,18,22.60
2021,04,16,16,19,22.60
2021,04,16,16,20,22.70
2021,04,16,16,21,22.70
2021,04,16,16,22,22.70
2021,04,16,16,23,22.70
2021,04,16,16,24,22.70
2021,04,16,16,25,22.70
2021,04,16,16,26,22.70
2021,04,16,16,27,22.70
2021,04,16,16,28,22.70
2021,04,16,16,29,22.70
2021,04,16,16,30,22.70
2021,04,16,16,31,22.70
2021,04,16,16,32,22.70
2021,04,16,16,33,22.70
2021,04,16,16,34,22.70
2021,04,16,16,35,22.80
2021,04,16,16,36,22.80
2021,04,16,16,37,22.80
2021,04,16,16,38,22.80
2021,04,16,16,39,22.80
2021,04,16,16,40,22.80
2021,04,16,16,41,22.80
2021,04,16,16,42,22.80
2021,04,16,16,43,22.70
2021,04,16,16,44,22.60
2021,04,16,16,45,22.60
2021,04,16,16,46,22.50
2021,04,16,16,47,22.40
2021,04,16,16,48,22.30
2021,04,16,16,49,22.30
2021,04,16,16,50,22.20
2021,04,16,16,51,22.20
2021,04,16,16,52,22.30
2021,04,16,16,53,22.20
2021,04,16,16,54,22.20
2021,04,16,16,55,22.20
2021,04,16,16,56,22.20
2021,04,16,16,57,22.20
2021,04,16,16,58,22.20
2021,04,16,16,59,22.20
2021,04,16,17,00,22.20
2021,04,16,17,01,22.30
2021,04,16,17,02,22.30
2021,04,16,17,03,22.30
2021,04,16,17,04,22.30
2021,04,16,17,05,22.30
2021,04,16,17,06,22.40
2021,04,16,17,07,22.40
2021,04,16,17,08,22.40
2021,04,16,17,09,22.50
2021,04,16,17,10,22.60
2021,04,16,17,11,22.60
2021,04,16,17,12,22.70
2021,04,16,17,13,22.70
2021,04,16,17,14,22.80
2021,04,16,17,15,22.80
2021,04,16,17,16,22.80
2021,04,16,17,17,22.80
2021,04,16,17,18,22.90
2021,04,16,17,19,22.90
2021,04,16,17,20,22.90
2021,04,16,17,21,22.90
2021,04,16,17,22,22.90
2021,04,16,17,23,22.90
2021,04,16,17,24,22.90
2021,04,16,17,25,22.90
2021,04,16,17,26,22.90
2021,04,16,17,27,22.90
2021,04,16,17,28,22.90
2021,04,16,17,29,22.90
2021,04,16,17,30,22.90
2021,04,16,17,31,22.90
2021,04,16,17,32,23.00
2021,04,16,17,33,23.00